contact:dominique.lefevre@mio.osupytheas.fr, maurice.libes@osupytheas.fr, didier.mallarino@osupytheas.fr
Project:EMSO http://www.emso-fr.org/EMSO-France
Depth: 2436.0 m
Title:EMSO Ligure Ouest : Data MII capteur AQUADOPP
Date,Latitude,Longitude,X_East,Y_North,Z_Up,Amplitude_X,Amplitude_Y,Amplitude_Z,Batterie,SoundSpeed,Heading,Pitch,Roll,Pressure,TIS,Speed,Direction
, degrees North, degrees East, m.s-1, m.s-1,m.s-1, 1, 1, 1, Volt, m.s-1, degree, degree, degree, dbar, degree_C, m.s-1, degree
2020-02-09T00:04:03,42.805,6.029,0.007,-0.001,-0.006,106.0,108.0,104.0,13.4,1505.3,326.4,-0.7,1.9,2470.292,13.31,0.007,98.1
2020-02-09T00:07:03,42.805,6.029,0.007,-0.003,-0.037,106.0,107.0,102.0,13.3,1505.3,325.1,-0.7,1.8,2470.232,13.31,0.007,113.2
2020-02-09T00:10:03,42.805,6.029,0.012,0.0,-0.017,107.0,109.0,103.0,13.3,1505.3,323.5,-0.7,1.8,2470.247,13.32,0.012,90.0
2020-02-09T00:13:03,42.805,6.029,-0.019,0.009,-0.007,106.0,107.0,103.0,13.3,1505.3,326.4,-0.7,1.9,2470.249,13.32,0.021,295.3
2020-02-09T00:16:03,42.805,6.029,0.021,-0.007,0.012,105.0,107.0,102.0,13.3,1505.3,326.8,-0.7,1.9,2470.206,13.32,0.022,108.4
2020-02-09T00:19:03,42.805,6.029,-0.01,0.0,-0.016,108.0,108.0,103.0,13.3,1505.3,326.4,-0.7,1.9,2470.226,13.33,0.01,270.0
2020-02-09T00:22:03,42.805,6.029,0.009,-0.012,0.002,105.0,108.0,103.0,13.3,1505.3,324.9,-0.7,1.8,2470.219,13.33,0.015,143.1
2020-02-09T00:25:03,42.805,6.029,-0.001,-0.003,-0.018,105.0,108.0,104.0,13.3,1505.3,325.0,-0.7,1.8,2470.191,13.33,0.003,198.4
2020-02-09T00:28:03,42.805,6.029,0.014,-0.012,-0.012,107.0,108.0,103.0,13.4,1505.3,325.3,-0.7,1.9,2470.212,13.33,0.018,130.6
2020-02-09T00:31:03,42.805,6.029,-0.001,-0.018,0.003,106.0,109.0,104.0,13.3,1505.3,327.8,-0.7,1.9,2470.178,13.33,0.018,183.2
2020-02-09T00:34:03,42.805,6.029,0.003,-0.007,-0.014,105.0,108.0,104.0,13.4,1505.3,324.9,-0.7,1.8,2470.18,13.33,0.007,156.8
2020-02-09T00:37:03,42.805,6.029,0.029,-0.015,-0.024,107.0,111.0,103.0,13.4,1505.3,326.0,-0.7,1.8,2470.275,13.33,0.032,117.4
2020-02-09T00:40:03,42.805,6.029,0.037,0.0,0.015,111.0,108.0,104.0,13.4,1505.3,327.2,-0.7,1.9,2470.221,13.33,0.037,90.0
2020-02-09T00:43:03,42.805,6.029,0.022,-0.012,0.024,109.0,109.0,104.0,13.4,1505.3,327.0,-0.7,1.8,2470.188,13.33,0.025,118.6
2020-02-09T00:46:03,42.805,6.029,-0.001,-0.028,-0.039,107.0,108.0,102.0,13.4,1505.3,323.6,-0.7,1.9,2470.23,13.33,0.028,182.0
2020-02-09T00:49:03,42.805,6.029,0.001,-0.008,0.004,108.0,108.0,104.0,13.4,1505.3,327.6,-0.7,1.8,2470.169,13.33,0.008,172.9
2020-02-09T00:52:03,42.805,6.029,0.0,-0.017,-0.042,106.0,109.0,104.0,13.3,1505.3,325.7,-0.7,1.8,2470.177,13.33,0.017,180.0
2020-02-09T00:55:03,42.805,6.029,0.03,0.004,0.011,109.0,109.0,104.0,13.3,1505.3,325.5,-0.7,1.8,2470.178,13.33,0.03,82.4
2020-02-09T00:58:03,42.805,6.029,0.04,-0.017,0.003,106.0,109.0,102.0,13.4,1505.3,325.2,-0.7,1.9,2470.235,13.33,0.043,113.0
2020-02-09T01:04:03,42.805,6.029,0.016,-0.016,-0.01,107.0,108.0,104.0,13.4,1505.3,327.8,-0.8,1.8,2470.23,13.31,0.022,135.0
2020-02-09T01:07:02,42.805,6.029,0.024,-0.004,0.015,106.0,110.0,104.0,13.4,1505.3,324.1,-0.7,1.8,2470.236,13.31,0.024,99.5
2020-02-09T01:10:03,42.805,6.029,0.062,-0.031,0.004,106.0,108.0,102.0,13.4,1505.3,326.3,-0.7,1.9,2470.218,13.32,0.069,116.6
2020-02-09T01:13:03,42.805,6.029,0.011,-0.01,-0.03,107.0,109.0,102.0,13.4,1505.3,324.7,-0.7,1.9,2470.254,13.32,0.014,132.3
2020-02-09T01:16:03,42.805,6.029,-0.014,0.004,-0.003,108.0,110.0,103.0,13.3,1505.3,324.6,-0.7,1.8,2470.165,13.32,0.014,285.9
2020-02-09T01:19:03,42.805,6.029,0.019,-0.006,0.004,108.0,108.0,103.0,13.4,1505.3,327.4,-0.7,1.8,2470.19,13.33,0.019,107.5
2020-02-09T01:22:03,42.805,6.029,0.036,-0.014,-0.009,106.0,108.0,103.0,13.4,1505.3,326.7,-0.7,1.8,2470.202,13.33,0.038,111.2
2020-02-09T01:25:03,42.805,6.029,0.013,-0.011,0.001,106.0,107.0,103.0,13.4,1505.3,325.6,-0.7,1.8,2470.223,13.33,0.017,130.2
2020-02-09T01:28:03,42.805,6.029,0.013,0.006,-0.04,105.0,106.0,103.0,13.4,1505.3,324.4,-0.7,1.8,2470.219,13.33,0.014,65.2
2020-02-09T01:31:03,42.805,6.029,0.036,-0.01,-0.023,107.0,107.0,104.0,13.4,1505.3,323.2,-0.7,1.8,2470.227,13.33,0.037,105.5
2020-02-09T01:34:03,42.805,6.029,0.028,-0.013,-0.03,107.0,107.0,104.0,13.4,1505.3,328.0,-0.7,1.9,2470.232,13.33,0.03,114.9
2020-02-09T01:37:03,42.805,6.029,0.019,-0.007,0.014,106.0,106.0,103.0,13.3,1505.3,326.7,-0.7,1.8,2470.209,13.33,0.02,110.2
2020-02-09T01:40:03,42.805,6.029,0.024,-0.011,-0.028,105.0,106.0,104.0,13.4,1505.3,325.7,-0.7,1.8,2470.205,13.33,0.026,114.6
2020-02-09T01:43:03,42.805,6.029,0.012,-0.009,0.021,108.0,108.0,103.0,13.3,1505.3,325.0,-0.7,1.8,2470.2,13.33,0.015,126.9
2020-02-09T01:46:03,42.805,6.029,0.018,-0.001,-0.02,105.0,107.0,105.0,13.4,1505.3,323.6,-0.7,1.8,2470.241,13.33,0.018,93.2
2020-02-09T01:52:03,42.805,6.029,0.011,-0.019,-0.007,107.0,111.0,104.0,13.4,1505.3,324.6,-0.8,1.8,2470.226,13.31,0.021,149.9
2020-02-09T01:55:03,42.805,6.029,0.021,0.002,-0.028,107.0,108.0,102.0,13.3,1505.3,324.0,-0.7,1.8,2470.237,13.31,0.021,84.6
2020-02-09T01:58:03,42.805,6.029,0.039,-0.012,0.025,104.0,107.0,102.0,13.3,1505.3,323.0,-0.7,1.8,2470.257,13.32,0.04,107.1
2020-02-09T02:04:03,42.805,6.029,0.044,-0.007,0.003,107.0,107.0,104.0,13.4,1505.2,324.2,-0.8,1.8,2470.209,13.3,0.044,99.0
2020-02-09T02:07:03,42.805,6.029,0.01,0.0,0.007,108.0,109.0,103.0,13.3,1505.3,324.9,-0.7,1.8,2470.286,13.31,0.01,90.0
2020-02-09T02:10:03,42.805,6.029,0.041,0.002,-0.027,106.0,107.0,104.0,13.3,1505.3,327.5,-0.7,1.9,2470.202,13.32,0.041,87.2
2020-02-09T02:13:03,42.805,6.029,0.03,-0.011,0.025,106.0,108.0,104.0,13.3,1505.3,326.5,-0.7,1.8,2470.261,13.32,0.031,110.1
2020-02-09T02:16:03,42.805,6.029,0.016,0.004,0.021,106.0,109.0,105.0,13.4,1505.3,327.7,-0.7,1.8,2470.246,13.32,0.016,76.0
2020-02-09T02:19:03,42.805,6.029,0.03,-0.018,0.021,108.0,108.0,103.0,13.4,1505.3,324.1,-0.7,1.8,2470.187,13.33,0.034,121.0
2020-02-09T02:22:03,42.805,6.029,0.032,0.003,0.0,108.0,109.0,104.0,13.3,1505.3,322.7,-0.7,1.8,2470.2,13.33,0.032,84.6
2020-02-09T02:25:03,42.805,6.029,-0.001,-0.009,-0.001,108.0,106.0,104.0,13.4,1505.3,325.2,-0.7,1.8,2470.233,13.33,0.009,186.3
2020-02-09T02:28:03,42.805,6.029,0.034,-0.025,0.021,106.0,108.0,103.0,13.4,1505.3,327.7,-0.7,1.8,2470.217,13.33,0.042,126.3
2020-02-09T02:31:03,42.805,6.029,0.042,-0.022,-0.018,106.0,106.0,102.0,13.4,1505.3,325.7,-0.7,1.8,2470.193,13.33,0.047,117.6
2020-02-09T02:34:03,42.805,6.029,0.021,-0.014,-0.026,105.0,108.0,103.0,13.3,1505.3,327.9,-0.7,1.8,2470.209,13.33,0.025,123.7
2020-02-09T02:37:03,42.805,6.029,0.021,-0.014,-0.005,107.0,109.0,105.0,13.3,1505.3,324.7,-0.7,1.8,2470.215,13.33,0.025,123.7
2020-02-09T02:40:03,42.805,6.029,0.036,0.0,-0.01,108.0,109.0,105.0,13.4,1505.3,323.8,-0.7,1.8,2470.211,13.33,0.036,90.0
2020-02-09T02:46:03,42.805,6.029,0.025,-0.012,0.022,110.0,110.0,104.0,13.4,1505.3,326.6,-0.7,1.8,2470.261,13.31,0.027,115.6
2020-02-09T02:49:03,42.805,6.029,0.031,-0.014,-0.01,106.0,109.0,103.0,13.4,1505.3,327.0,-0.7,1.8,2470.265,13.31,0.034,114.3
2020-02-09T02:52:03,42.805,6.029,0.027,-0.023,0.017,107.0,109.0,103.0,13.4,1505.3,324.0,-0.7,1.8,2470.252,13.32,0.035,130.4
2020-02-09T02:55:03,42.805,6.029,0.033,-0.009,0.0,106.0,108.0,104.0,13.4,1505.3,327.1,-0.7,1.8,2470.277,13.32,0.034,105.3
2020-02-09T02:58:03,42.805,6.029,0.018,0.001,0.005,106.0,109.0,103.0,13.4,1505.3,325.1,-0.8,1.8,2470.241,13.32,0.018,86.8
2020-02-09T03:04:03,42.805,6.029,0.018,-0.02,-0.017,108.0,108.0,104.0,13.4,1505.3,325.6,-0.7,1.8,2470.296,13.31,0.026,138.0
2020-02-09T03:07:03,42.805,6.029,0.022,-0.02,-0.002,109.0,110.0,106.0,13.3,1505.3,327.5,-0.7,1.8,2470.28,13.31,0.029,132.3
2020-02-09T03:10:03,42.805,6.029,0.053,0.003,0.019,109.0,109.0,104.0,13.3,1505.3,325.7,-0.7,1.8,2470.263,13.32,0.053,86.8
2020-02-09T03:13:03,42.805,6.029,0.013,-0.007,-0.004,107.0,109.0,104.0,13.4,1505.3,328.2,-0.7,1.8,2470.302,13.32,0.014,118.3
2020-02-09T03:16:03,42.805,6.029,0.012,-0.013,-0.013,108.0,108.0,104.0,13.3,1505.3,324.9,-0.7,1.9,2470.258,13.32,0.017,137.3
2020-02-09T03:19:03,42.805,6.029,0.024,-0.026,0.002,107.0,108.0,104.0,13.4,1505.3,327.0,-0.7,1.8,2470.268,13.32,0.035,137.3
2020-02-09T03:22:03,42.805,6.029,0.028,-0.007,-0.028,107.0,107.0,104.0,13.4,1505.3,327.3,-0.7,1.8,2470.263,13.33,0.028,104.0
2020-02-09T03:25:03,42.805,6.029,0.032,-0.02,0.01,107.0,108.0,103.0,13.4,1505.3,323.8,-0.7,1.9,2470.287,13.33,0.037,122.0
2020-02-09T03:28:03,42.805,6.029,0.02,-0.023,-0.008,107.0,108.0,103.0,13.4,1505.3,327.0,-0.7,1.8,2470.266,13.33,0.03,139.0
2020-02-09T03:31:03,42.805,6.029,0.035,-0.014,-0.006,107.0,108.0,104.0,13.4,1505.3,328.2,-0.7,1.8,2470.303,13.33,0.037,111.8
2020-02-09T03:34:03,42.805,6.029,0.003,-0.016,-0.001,107.0,109.0,104.0,13.3,1505.3,325.5,-0.7,1.8,2470.339,13.33,0.016,169.4
2020-02-09T03:37:03,42.805,6.029,0.021,-0.007,-0.003,106.0,108.0,103.0,13.4,1505.3,327.3,-0.7,1.8,2470.26,13.33,0.022,108.4
2020-02-09T03:40:03,42.805,6.029,0.034,-0.023,-0.001,106.0,108.0,102.0,13.4,1505.3,326.7,-0.7,1.8,2470.255,13.33,0.041,124.1
2020-02-09T03:43:03,42.805,6.029,0.04,0.005,-0.015,109.0,107.0,103.0,13.4,1505.3,327.6,-0.7,1.8,2470.294,13.33,0.04,82.9
2020-02-09T03:46:03,42.805,6.029,0.037,-0.007,-0.023,108.0,106.0,103.0,13.4,1505.3,326.9,-0.7,1.8,2470.261,13.33,0.037,100.7
2020-02-09T03:49:03,42.805,6.029,0.033,-0.009,0.002,108.0,108.0,103.0,13.4,1505.3,324.3,-0.7,1.8,2470.323,13.33,0.034,105.3
2020-02-09T03:52:03,42.805,6.029,0.017,-0.006,0.018,109.0,107.0,104.0,13.4,1505.3,325.9,-0.7,1.8,2470.282,13.33,0.018,109.4
2020-02-09T03:55:03,42.805,6.029,-0.014,0.0,-0.016,107.0,109.0,104.0,13.4,1505.3,324.0,-0.7,1.9,2470.292,13.33,0.014,270.0
2020-02-09T03:58:03,42.805,6.029,0.014,-0.005,-0.006,108.0,110.0,104.0,13.3,1505.3,327.5,-0.7,1.8,2470.32,13.33,0.014,109.6
2020-02-09T04:04:03,42.805,6.029,0.033,-0.007,-0.018,107.0,108.0,104.0,13.4,1505.3,323.8,-0.7,1.8,2470.38,13.31,0.033,102.0
2020-02-09T04:07:03,42.805,6.029,0.049,-0.007,-0.013,107.0,108.0,104.0,13.3,1505.3,328.0,-0.7,1.8,2470.336,13.31,0.049,98.1
2020-02-09T04:10:03,42.805,6.029,0.035,-0.016,0.006,106.0,108.0,103.0,13.3,1505.3,326.4,-0.7,1.8,2470.331,13.32,0.038,114.6
2020-02-09T04:13:03,42.805,6.029,0.009,-0.009,0.001,107.0,107.0,104.0,13.4,1505.3,323.8,-0.7,1.9,2470.341,13.32,0.012,135.0
2020-02-09T04:16:03,42.805,6.029,0.032,-0.017,-0.009,107.0,110.0,103.0,13.4,1505.3,325.5,-0.7,1.8,2470.352,13.32,0.036,118.0
2020-02-09T04:19:03,42.805,6.029,0.036,-0.016,0.015,108.0,109.0,103.0,13.3,1505.3,326.7,-0.7,1.8,2470.349,13.33,0.039,114.0
2020-02-09T04:22:03,42.805,6.029,0.021,-0.014,-0.019,109.0,108.0,105.0,13.4,1505.3,327.4,-0.7,1.9,2470.324,13.33,0.025,123.7
2020-02-09T04:25:03,42.805,6.029,0.009,-0.01,0.0,107.0,106.0,103.0,13.4,1505.3,325.6,-0.7,1.8,2470.34,13.33,0.013,138.0
2020-02-09T04:28:03,42.805,6.029,0.022,-0.004,-0.017,107.0,109.0,103.0,13.3,1505.3,326.7,-0.7,1.8,2470.361,13.33,0.022,100.3
2020-02-09T04:31:03,42.805,6.029,0.021,-0.031,-0.027,107.0,108.0,104.0,13.4,1505.3,326.4,-0.7,1.8,2470.342,13.33,0.037,145.9
2020-02-09T04:34:03,42.805,6.029,0.004,0.005,-0.013,108.0,107.0,105.0,13.4,1505.3,326.8,-0.7,1.8,2470.335,13.33,0.006,38.7
2020-02-09T04:37:03,42.805,6.029,0.035,-0.002,0.001,108.0,108.0,103.0,13.4,1505.3,325.9,-0.7,1.8,2470.371,13.33,0.035,93.3
2020-02-09T04:40:03,42.805,6.029,0.023,-0.021,-0.007,108.0,106.0,104.0,13.3,1505.3,325.8,-0.7,1.8,2470.35,13.33,0.031,132.4
2020-02-09T04:43:03,42.805,6.029,0.006,-0.014,-0.006,106.0,107.0,104.0,13.4,1505.3,324.6,-0.7,1.8,2470.408,13.33,0.015,156.8
2020-02-09T04:46:03,42.805,6.029,0.022,-0.018,0.0,109.0,109.0,103.0,13.3,1505.3,328.6,-0.7,1.8,2470.341,13.33,0.028,129.3
2020-02-09T04:49:03,42.805,6.029,0.026,-0.025,-0.017,109.0,108.0,104.0,13.3,1505.3,324.9,-0.7,1.8,2470.415,13.33,0.036,133.9
2020-02-09T04:52:03,42.805,6.029,0.03,-0.007,-0.008,105.0,109.0,104.0,13.4,1505.3,324.1,-0.7,1.8,2470.37,13.33,0.03,103.1
2020-02-09T04:55:03,42.805,6.029,0.033,-0.023,-0.011,107.0,109.0,104.0,13.3,1505.3,327.3,-0.7,1.9,2470.39,13.33,0.04,124.9
2020-02-09T04:58:03,42.805,6.029,0.027,-0.033,0.014,107.0,110.0,103.0,13.3,1505.3,328.0,-0.7,1.8,2470.35,13.33,0.042,140.7
2020-02-09T05:04:03,42.805,6.029,0.035,-0.024,-0.012,108.0,108.0,104.0,13.3,1505.3,325.6,-0.7,1.8,2470.436,13.31,0.042,124.4
2020-02-09T05:07:03,42.805,6.029,-0.004,-0.016,-0.026,108.0,107.0,104.0,13.3,1505.3,328.8,-0.7,1.8,2470.402,13.31,0.016,194.0
2020-02-09T05:10:03,42.805,6.029,0.0,-0.03,-0.023,106.0,107.0,103.0,13.4,1505.3,327.2,-0.7,1.8,2470.421,13.32,0.03,180.0
2020-02-09T05:13:03,42.805,6.029,0.033,-0.025,-0.021,106.0,108.0,101.0,13.3,1505.3,324.8,-0.7,1.8,2470.463,13.32,0.041,127.1
2020-02-09T05:16:03,42.805,6.029,0.029,-0.013,-0.025,108.0,106.0,103.0,13.4,1505.3,326.3,-0.7,1.8,2470.41,13.32,0.031,114.1
2020-02-09T05:19:03,42.805,6.029,0.002,-0.038,0.0,106.0,109.0,103.0,13.4,1505.3,326.7,-0.7,1.8,2470.438,13.32,0.038,177.0
2020-02-09T05:22:03,42.805,6.029,0.03,-0.015,-0.011,106.0,109.0,103.0,13.4,1505.3,325.0,-0.7,1.9,2470.391,13.33,0.033,116.6
2020-02-09T05:25:03,42.805,6.029,0.033,-0.013,-0.009,107.0,106.0,104.0,13.3,1505.3,328.3,-0.7,1.8,2470.404,13.33,0.035,111.5
2020-02-09T05:28:03,42.805,6.029,0.001,-0.021,-0.005,108.0,107.0,103.0,13.3,1505.3,326.4,-0.7,1.9,2470.439,13.33,0.021,177.3
2020-02-09T05:31:03,42.805,6.029,0.017,-0.009,-0.016,105.0,108.0,103.0,13.4,1505.3,327.9,-0.7,1.8,2470.487,13.33,0.019,117.9
2020-02-09T05:34:03,42.805,6.029,0.026,-0.017,0.003,106.0,107.0,105.0,13.4,1505.3,326.9,-0.7,1.9,2470.431,13.33,0.031,123.2
2020-02-09T05:37:03,42.805,6.029,0.02,-0.015,-0.024,107.0,108.0,103.0,13.4,1505.3,326.6,-0.7,1.8,2470.464,13.33,0.025,126.9
2020-02-09T05:40:03,42.805,6.029,0.009,-0.02,0.008,107.0,108.0,108.0,13.4,1505.3,325.6,-0.7,1.9,2470.455,13.33,0.021,155.8
2020-02-09T05:43:03,42.805,6.029,0.04,-0.001,0.003,107.0,109.0,104.0,13.4,1505.3,327.2,-0.7,1.8,2470.464,13.33,0.04,91.4
2020-02-09T05:46:03,42.805,6.029,0.007,-0.005,-0.017,107.0,109.0,103.0,13.4,1505.3,326.4,-0.7,1.8,2470.474,13.33,0.008,125.5
2020-02-09T05:49:03,42.805,6.029,0.029,-0.011,-0.027,107.0,109.0,102.0,13.3,1505.3,324.8,-0.7,1.8,2470.468,13.33,0.031,110.8
2020-02-09T05:52:03,42.805,6.029,0.004,-0.014,-0.013,108.0,107.0,104.0,13.4,1505.3,324.7,-0.7,1.8,2470.433,13.33,0.014,164.1
2020-02-09T05:55:03,42.805,6.029,0.024,-0.017,0.0,107.0,106.0,103.0,13.3,1505.3,323.0,-0.7,1.8,2470.432,13.33,0.029,125.3
2020-02-09T05:58:03,42.805,6.029,0.028,-0.017,-0.031,108.0,107.0,103.0,13.4,1505.3,327.8,-0.7,1.9,2470.449,13.33,0.032,121.3
2020-02-09T06:04:03,42.805,6.029,0.021,-0.005,-0.004,108.0,108.0,103.0,13.4,1505.3,327.7,-0.7,1.8,2470.504,13.31,0.021,103.4
2020-02-09T06:07:03,42.805,6.029,0.013,-0.032,0.016,107.0,109.0,104.0,13.3,1505.3,325.5,-0.7,1.8,2470.493,13.31,0.034,157.9
2020-02-09T06:10:03,42.805,6.029,0.037,-0.001,-0.015,108.0,109.0,105.0,13.4,1505.3,325.6,-0.7,1.9,2470.481,13.32,0.037,91.5
2020-02-09T06:13:03,42.805,6.029,0.012,-0.021,-0.004,107.0,109.0,103.0,13.4,1505.3,326.6,-0.7,1.8,2470.503,13.32,0.024,150.3
2020-02-09T06:16:03,42.805,6.029,0.008,-0.009,-0.032,107.0,109.0,103.0,13.4,1505.3,325.4,-0.7,1.8,2470.405,13.32,0.012,138.4
2020-02-09T06:19:03,42.805,6.029,0.042,-0.011,-0.007,109.0,107.0,103.0,13.4,1505.3,323.3,-0.7,1.8,2470.476,13.32,0.043,104.7
2020-02-09T06:22:03,42.805,6.029,0.016,0.0,-0.012,107.0,108.0,104.0,13.3,1505.3,325.2,-0.7,1.8,2470.481,13.33,0.016,90.0
2020-02-09T06:25:03,42.805,6.029,0.034,-0.018,-0.018,107.0,108.0,103.0,13.3,1505.3,324.8,-0.7,1.8,2470.499,13.33,0.038,117.9
2020-02-09T06:28:03,42.805,6.029,0.03,-0.013,0.024,106.0,107.0,104.0,13.3,1505.3,326.7,-0.7,1.8,2470.473,13.33,0.032,113.4
2020-02-09T06:31:03,42.805,6.029,0.026,-0.01,0.019,108.0,107.0,104.0,13.3,1505.3,324.9,-0.7,1.8,2470.499,13.33,0.027,111.0
2020-02-09T06:34:03,42.805,6.029,0.015,-0.012,0.001,106.0,107.0,103.0,13.4,1505.3,323.2,-0.7,1.9,2470.484,13.33,0.019,128.7
2020-02-09T06:37:03,42.805,6.029,0.035,-0.006,0.009,109.0,108.0,104.0,13.4,1505.3,327.7,-0.7,1.9,2470.466,13.33,0.035,99.7
2020-02-09T06:40:03,42.805,6.029,0.021,-0.006,-0.015,106.0,109.0,103.0,13.4,1505.3,325.9,-0.7,1.9,2470.468,13.33,0.021,105.9
2020-02-09T06:43:03,42.805,6.029,0.022,-0.011,-0.007,108.0,108.0,104.0,13.4,1505.3,326.8,-0.7,1.8,2470.501,13.33,0.024,116.6
2020-02-09T06:46:03,42.805,6.029,0.036,-0.019,-0.02,107.0,108.0,103.0,13.4,1505.3,323.4,-0.7,1.8,2470.488,13.33,0.04,117.8
2020-02-09T06:49:03,42.805,6.029,0.038,-0.007,0.015,109.0,108.0,103.0,13.4,1505.3,325.7,-0.7,1.8,2470.462,13.33,0.038,100.4
2020-02-09T06:52:03,42.805,6.029,0.037,-0.007,0.002,107.0,109.0,103.0,13.3,1505.3,323.1,-0.7,1.8,2470.474,13.33,0.037,100.7
2020-02-09T06:55:03,42.805,6.029,0.05,-0.02,-0.007,106.0,107.0,104.0,13.4,1505.3,327.4,-0.7,1.8,2470.482,13.33,0.053,111.8
2020-02-09T06:58:03,42.805,6.029,0.031,-0.008,-0.043,108.0,108.0,104.0,13.3,1505.3,324.4,-0.7,1.8,2470.469,13.33,0.032,104.5
2020-02-09T07:04:03,42.805,6.029,0.047,-0.014,-0.017,107.0,108.0,105.0,13.3,1505.3,325.7,-0.7,1.8,2470.561,13.31,0.049,106.6
2020-02-09T07:07:03,42.805,6.029,0.018,-0.007,0.0,107.0,107.0,104.0,13.4,1505.3,327.3,-0.8,1.8,2470.493,13.31,0.019,111.2
2020-02-09T07:10:03,42.805,6.029,0.004,-0.008,0.002,110.0,107.0,103.0,13.4,1505.3,323.3,-0.7,1.8,2470.528,13.32,0.008,153.4
2020-02-09T07:13:03,42.805,6.029,0.019,0.0,-0.021,107.0,109.0,103.0,13.3,1505.3,325.9,-0.7,1.8,2470.52,13.32,0.019,90.0
2020-02-09T07:16:03,42.805,6.029,0.008,-0.037,-0.031,107.0,108.0,103.0,13.3,1505.3,327.8,-0.7,1.8,2470.495,13.32,0.037,167.8
2020-02-09T07:22:03,42.805,6.029,0.057,-0.012,-0.042,106.0,108.0,102.0,13.4,1505.2,322.6,-0.7,1.8,2470.592,13.3,0.058,101.9
2020-02-09T07:25:03,42.805,6.029,0.027,-0.03,-0.02,106.0,109.0,103.0,13.4,1505.3,328.4,-0.7,1.8,2470.499,13.31,0.04,138.0
2020-02-09T07:28:03,42.805,6.029,0.024,-0.015,-0.039,106.0,107.0,103.0,13.3,1505.3,323.1,-0.7,1.9,2470.554,13.32,0.028,122.0
2020-02-09T07:31:03,42.805,6.029,0.003,-0.02,-0.019,105.0,107.0,103.0,13.4,1505.3,324.7,-0.7,1.9,2470.519,13.32,0.02,171.5
2020-02-09T07:34:03,42.805,6.029,0.032,0.007,-0.005,106.0,107.0,103.0,13.4,1505.3,325.3,-0.7,1.8,2470.529,13.32,0.032,77.7
2020-02-09T07:37:03,42.805,6.029,0.007,-0.033,-0.034,107.0,107.0,103.0,13.4,1505.3,325.6,-0.7,1.8,2470.463,13.32,0.033,168.0
2020-02-09T07:40:03,42.805,6.029,0.031,-0.002,-0.019,108.0,108.0,103.0,13.4,1505.3,327.0,-0.7,1.9,2470.53,13.32,0.031,93.7
2020-02-09T07:43:03,42.805,6.029,0.006,-0.007,-0.025,106.0,108.0,104.0,13.3,1505.3,324.8,-0.7,1.8,2470.516,13.33,0.009,139.4
2020-02-09T07:46:03,42.805,6.029,0.046,-0.018,-0.004,106.0,107.0,104.0,13.4,1505.3,324.8,-0.7,1.8,2470.545,13.32,0.049,111.4
2020-02-09T07:49:03,42.805,6.029,0.015,-0.031,-0.021,107.0,108.0,103.0,13.4,1505.3,327.5,-0.7,1.8,2470.523,13.32,0.034,154.2
2020-02-09T07:52:03,42.805,6.029,0.006,-0.032,-0.046,107.0,107.0,103.0,13.4,1505.3,326.3,-0.7,1.8,2470.527,13.33,0.032,169.4
2020-02-09T07:55:03,42.805,6.029,0.036,-0.007,-0.008,107.0,107.0,103.0,13.4,1505.3,325.6,-0.7,1.8,2470.537,13.33,0.036,101.0
2020-02-09T07:58:03,42.805,6.029,0.018,-0.018,-0.011,107.0,108.0,103.0,13.4,1505.3,325.1,-0.7,1.8,2470.507,13.33,0.025,135.0
2020-02-09T08:04:03,42.805,6.029,0.002,-0.014,-0.029,109.0,108.0,103.0,13.4,1505.3,324.0,-0.7,1.8,2470.569,13.31,0.014,171.9
2020-02-09T08:07:03,42.805,6.029,0.034,-0.002,0.009,107.0,108.0,104.0,13.4,1505.3,323.8,-0.7,1.8,2470.533,13.31,0.034,93.4
2020-02-09T08:10:03,42.805,6.029,0.0,-0.027,-0.013,107.0,107.0,103.0,13.4,1505.3,326.3,-0.7,1.8,2470.526,13.32,0.026,180.0
2020-02-09T08:13:03,42.805,6.029,0.009,-0.02,0.0,106.0,108.0,103.0,13.3,1505.3,325.0,-0.6,1.8,2470.454,13.32,0.021,155.8
2020-02-09T08:16:03,42.805,6.029,0.005,-0.023,0.0,107.0,109.0,103.0,13.4,1505.3,327.1,-0.7,1.8,2470.484,13.32,0.023,167.7
2020-02-09T08:19:03,42.805,6.029,0.009,-0.014,-0.051,107.0,107.0,103.0,13.4,1505.3,327.4,-0.7,1.9,2470.478,13.32,0.016,147.3
2020-02-09T08:22:03,42.805,6.029,0.028,-0.003,-0.015,108.0,108.0,103.0,13.3,1505.3,323.2,-0.7,1.8,2470.494,13.33,0.028,96.1
2020-02-09T08:25:03,42.805,6.029,0.0,-0.021,-0.017,106.0,107.0,103.0,13.3,1505.3,327.7,-0.7,1.9,2470.528,13.33,0.021,180.0
2020-02-09T08:28:03,42.805,6.029,0.016,-0.007,-0.021,107.0,108.0,104.0,13.3,1505.3,323.8,-0.7,1.8,2470.554,13.33,0.017,113.6
2020-02-09T08:31:03,42.805,6.029,0.002,-0.019,-0.004,107.0,107.0,102.0,13.4,1505.3,326.3,-0.7,1.8,2470.502,13.33,0.019,174.0
2020-02-09T08:34:03,42.805,6.029,-0.014,-0.017,-0.023,106.0,108.0,102.0,13.4,1505.3,326.4,-0.7,1.8,2470.487,13.33,0.022,219.5
2020-02-09T08:37:03,42.805,6.029,0.025,-0.022,0.0,105.0,107.0,103.0,13.4,1505.3,324.8,-0.7,1.8,2470.508,13.33,0.033,131.3
2020-02-09T08:40:03,42.805,6.029,0.019,-0.032,-0.018,106.0,106.0,103.0,13.4,1505.3,325.7,-0.7,1.8,2470.482,13.33,0.037,149.3
2020-02-09T08:43:03,42.805,6.029,0.021,-0.029,-0.015,106.0,109.0,104.0,13.3,1505.3,325.9,-0.7,1.8,2470.509,13.33,0.035,144.1
2020-02-09T08:46:03,42.805,6.029,0.012,-0.02,-0.015,109.0,108.0,105.0,13.4,1505.3,325.9,-0.7,1.9,2470.484,13.33,0.023,149.0
2020-02-09T08:49:03,42.805,6.029,-0.003,-0.021,-0.038,107.0,106.0,103.0,13.4,1505.3,323.7,-0.7,1.9,2470.523,13.33,0.021,188.1
2020-02-09T08:52:03,42.805,6.029,0.003,-0.025,-0.037,106.0,107.0,103.0,13.4,1505.3,325.0,-0.7,1.9,2470.506,13.33,0.025,173.2
2020-02-09T08:55:03,42.805,6.029,0.009,-0.027,-0.023,106.0,107.0,104.0,13.4,1505.3,325.0,-0.7,1.8,2470.494,13.33,0.028,161.6
2020-02-09T08:58:03,42.805,6.029,0.02,-0.017,0.003,107.0,108.0,103.0,13.3,1505.3,325.6,-0.7,1.9,2470.475,13.33,0.026,130.4
2020-02-09T09:04:03,42.805,6.029,0.0,-0.025,-0.02,106.0,107.0,103.0,13.4,1505.3,326.4,-0.7,1.8,2470.482,13.31,0.025,180.0
2020-02-09T09:07:03,42.805,6.029,-0.013,-0.018,-0.027,107.0,107.0,104.0,13.4,1505.3,323.2,-0.7,1.8,2470.478,13.31,0.022,215.8
2020-02-09T09:10:03,42.805,6.029,0.003,-0.014,-0.009,108.0,108.0,104.0,13.4,1505.3,328.1,-0.8,1.8,2470.522,13.32,0.014,167.9
2020-02-09T09:13:03,42.805,6.029,0.013,-0.012,-0.005,107.0,107.0,103.0,13.4,1505.3,326.9,-0.7,1.8,2470.502,13.32,0.017,132.7
2020-02-09T09:16:03,42.805,6.029,0.001,-0.027,-0.012,108.0,109.0,103.0,13.4,1505.3,324.4,-0.7,1.8,2470.492,13.32,0.027,177.9
2020-02-09T09:19:03,42.805,6.029,0.009,-0.018,-0.004,107.0,109.0,104.0,13.4,1505.3,325.9,-0.7,1.8,2470.501,13.32,0.02,153.4
2020-02-09T09:22:03,42.805,6.029,0.007,-0.04,-0.047,107.0,108.0,102.0,13.4,1505.3,328.3,-0.7,1.8,2470.473,13.32,0.04,170.1
2020-02-09T09:25:03,42.805,6.029,0.004,-0.023,-0.039,107.0,107.0,103.0,13.3,1505.3,327.8,-0.7,1.9,2470.453,13.32,0.023,170.1
2020-02-09T09:28:03,42.805,6.029,-0.005,-0.034,-0.027,107.0,108.0,104.0,13.4,1505.3,326.5,-0.7,1.9,2470.483,13.32,0.034,188.4
2020-02-09T09:31:03,42.805,6.029,0.032,-0.035,-0.016,106.0,108.0,104.0,13.4,1505.3,323.9,-0.7,1.8,2470.457,13.32,0.047,137.6
2020-02-09T09:34:03,42.805,6.029,-0.003,-0.049,-0.025,105.0,107.0,104.0,13.4,1505.3,326.8,-0.7,1.8,2470.521,13.32,0.049,183.5
2020-02-09T09:37:03,42.805,6.029,0.004,-0.015,-0.017,106.0,108.0,103.0,13.4,1505.3,327.7,-0.7,1.9,2470.482,13.32,0.015,165.1
2020-02-09T09:40:03,42.805,6.029,0.0,-0.018,-0.038,105.0,107.0,105.0,13.4,1505.3,327.3,-0.7,1.9,2470.451,13.32,0.018,180.0
2020-02-09T09:43:03,42.805,6.029,0.019,-0.021,-0.004,106.0,106.0,103.0,13.4,1505.3,324.8,-0.7,1.8,2470.468,13.33,0.028,137.9
2020-02-09T09:46:03,42.805,6.029,0.036,-0.034,-0.003,107.0,108.0,103.0,13.4,1505.3,326.4,-0.7,1.8,2470.499,13.33,0.049,133.4
2020-02-09T09:49:03,42.805,6.029,0.025,-0.025,-0.024,108.0,107.0,103.0,13.4,1505.3,327.0,-0.7,1.8,2470.511,13.33,0.035,135.0
2020-02-09T09:52:03,42.805,6.029,0.024,-0.01,0.01,107.0,107.0,103.0,13.4,1505.3,322.9,-0.7,1.8,2470.464,13.33,0.026,112.6
2020-02-09T09:58:03,42.805,6.029,-0.021,-0.034,-0.034,106.0,107.0,103.0,13.3,1505.3,326.0,-0.7,1.8,2470.498,13.31,0.039,211.7
2020-02-09T10:04:03,42.805,6.029,-0.008,-0.007,-0.025,107.0,106.0,103.0,13.3,1505.2,325.7,-0.7,1.8,2470.503,13.3,0.01,228.8
2020-02-09T10:07:03,42.805,6.029,0.024,-0.021,-0.012,105.0,107.0,102.0,13.4,1505.3,326.7,-0.7,1.8,2470.532,13.31,0.031,131.2
2020-02-09T10:10:03,42.805,6.029,-0.002,-0.042,-0.025,105.0,107.0,103.0,13.4,1505.3,325.2,-0.7,1.8,2470.529,13.31,0.042,182.7